timestamp,wind_dir_avg,wind_spd_avg,wind_spd_max_dir,wind_spd_gust,battery_voltage,lat,long
2023-06-06 00:04:01+00:00,44.0,6.46,40.0,7.05,12.97,47.59359,-54.27349
2023-06-06 00:14:01+00:00,41.0,5.79,42.0,6.2,12.41,47.59359,-54.27349
2023-06-06 00:24:01+00:00,47.0,5.92,47.0,6.53,12.41,47.59359,-54.27349
2023-06-06 00:34:01+00:00,43.0,5.32,46.0,5.98,12.41,47.59359,-54.27349
2023-06-06 00:44:01+00:00,42.0,5.36,42.0,6.01,12.41,47.59359,-54.27349
2023-06-06 00:54:01+00:00,42.0,6.09,45.0,6.74,12.41,47.59359,-54.27349
2023-06-06 01:04:01+00:00,46.0,5.58,49.0,6.5,12.41,47.59359,-54.27349
2023-06-06 01:14:00+00:00,49.0,5.96,48.0,6.66,12.41,47.59359,-54.27349
2023-06-06 01:24:00+00:00,46.0,6.19,49.0,6.83,12.41,47.59359,-54.27349
2023-06-06 01:34:00+00:00,44.0,6.15,47.0,6.76,12.41,47.59359,-54.27349
2023-06-06 01:44:00+00:00,44.0,6.17,48.0,6.88,12.41,47.59359,-54.27349
2023-06-06 01:54:00+00:00,48.0,6.81,48.0,7.79,12.41,47.59359,-54.27349
2023-06-06 02:04:00+00:00,53.0,7.02,52.0,7.91,12.41,47.59359,-54.27349
2023-06-06 02:14:00+00:00,50.0,7.37,51.0,8.08,12.33,47.59359,-54.27349
2023-06-06 02:24:00+00:00,49.0,7.43,51.0,8.08,12.33,47.59359,-54.27349
2023-06-06 02:34:00+00:00,46.0,6.18,45.0,7.18,12.33,47.59359,-54.27349
2023-06-06 02:44:00+00:00,39.0,5.95,43.0,6.56,12.33,47.59359,-54.27349
2023-06-06 02:54:00+00:00,38.0,5.47,39.0,5.9,12.33,47.59359,-54.27349
2023-06-06 03:04:00+00:00,40.0,5.23,43.0,5.89,12.33,47.59359,-54.27349
2023-06-06 03:14:00+00:00,41.0,5.8,39.0,6.25,12.33,47.59359,-54.27349
2023-06-06 03:24:00+00:00,47.0,6.03,48.0,6.69,12.33,47.59359,-54.27349
2023-06-06 03:34:00+00:00,48.0,5.75,44.0,6.78,12.33,47.59359,-54.27349
2023-06-06 03:44:00+00:00,46.0,5.67,51.0,6.56,12.33,47.59359,-54.27349
2023-06-06 03:54:00+00:00,45.0,6.32,40.0,7.64,12.33,47.59359,-54.27349
2023-06-06 04:04:00+00:00,45.0,5.71,42.0,6.33,12.33,47.59359,-54.27349
2023-06-06 04:14:01+00:00,46.0,5.89,45.0,6.81,12.33,47.59359,-54.27349
2023-06-06 04:24:01+00:00,47.0,5.95,51.0,6.56,12.33,47.59359,-54.27349
2023-06-06 04:34:01+00:00,42.0,6.07,47.0,6.95,12.33,47.59359,-54.27349
2023-06-06 04:44:01+00:00,42.0,6.47,41.0,7.1,12.33,47.59359,-54.27349
2023-06-06 04:54:01+00:00,38.0,6.19,38.0,6.67,12.33,47.59359,-54.27349
2023-06-06 05:04:01+00:00,39.0,5.12,43.0,5.61,12.33,47.59359,-54.27349
2023-06-06 05:14:01+00:00,39.0,4.73,46.0,5.38,12.33,47.59359,-54.27349
2023-06-06 05:24:01+00:00,41.0,5.03,42.0,5.49,12.33,47.59359,-54.27349
2023-06-06 05:34:01+00:00,42.0,5.03,43.0,5.34,12.33,47.59359,-54.27349
2023-06-06 05:44:01+00:00,40.0,4.84,47.0,5.58,12.33,47.59359,-54.27349
2023-06-06 05:54:01+00:00,40.0,3.9,51.0,5.32,12.33,47.59359,-54.27349
2023-06-06 06:04:01+00:00,39.0,4.48,51.0,5.34,12.33,47.59359,-54.27349
2023-06-06 06:14:00+00:00,35.0,3.53,51.0,4.58,12.25,47.59359,-54.27349
2023-06-06 06:24:00+00:00,40.0,4.54,55.0,5.54,12.25,47.59359,-54.27349
2023-06-06 06:34:00+00:00,51.0,3.96,66.0,4.8,12.25,47.59359,-54.27349
2023-06-06 06:44:00+00:00,50.0,5.41,52.0,6.35,12.25,47.59359,-54.27349
2023-06-06 06:54:00+00:00,44.0,5.13,45.0,6.05,12.25,47.59359,-54.27349
2023-06-06 07:04:00+00:00,56.0,5.33,51.0,6.19,12.25,47.59359,-54.27349
2023-06-06 07:14:01+00:00,52.0,5.71,54.0,6.32,12.25,47.59359,-54.27349
2023-06-06 07:24:01+00:00,51.0,5.37,50.0,6.2,12.25,47.59359,-54.27349
2023-06-06 07:34:01+00:00,38.0,5.75,36.0,6.96,12.25,47.59359,-54.27349
2023-06-06 07:44:01+00:00,38.0,5.63,41.0,6.63,12.25,47.59359,-54.27349
2023-06-06 07:54:01+00:00,40.0,5.27,53.0,7.5,12.25,47.59359,-54.27349
2023-06-06 08:04:01+00:00,37.0,5.48,37.0,6.57,12.25,47.59359,-54.27349
2023-06-06 08:14:00+00:00,48.0,5.36,58.0,7.67,12.25,47.59359,-54.27349
2023-06-06 08:24:00+00:00,56.0,6.95,56.0,8.45,12.25,47.59359,-54.27349
2023-06-06 08:34:00+00:00,50.0,5.47,62.0,7.21,12.25,47.59359,-54.27349
2023-06-06 08:44:00+00:00,52.0,6.12,57.0,8.46,12.25,47.59359,-54.27349
2023-06-06 08:54:00+00:00,56.0,7.74,59.0,8.88,12.25,47.59359,-54.27349
2023-06-06 09:04:00+00:00,50.0,6.95,54.0,8.82,12.25,47.59359,-54.27349
2023-06-06 09:14:01+00:00,45.0,6.63,55.0,8.53,12.25,47.59359,-54.27349
2023-06-06 09:24:01+00:00,48.0,6.47,54.0,7.66,12.25,47.59359,-54.27349
2023-06-06 09:34:01+00:00,55.0,6.51,54.0,7.62,12.25,47.59359,-54.27349
2023-06-06 09:44:01+00:00,55.0,7.3,56.0,8.09,12.25,47.59359,-54.27349
2023-06-06 09:54:01+00:00,57.0,6.75,55.0,7.43,12.25,47.59359,-54.27349
2023-06-06 10:04:01+00:00,57.0,6.82,57.0,7.63,12.25,47.59359,-54.27349
2023-06-06 10:14:00+00:00,54.0,7.13,53.0,7.81,12.57,47.59359,-54.27349
2023-06-06 10:24:00+00:00,58.0,6.8,56.0,7.78,12.57,47.59359,-54.27349
2023-06-06 10:34:00+00:00,67.0,7.42,64.0,8.08,12.57,47.59359,-54.27349
2023-06-06 10:44:00+00:00,62.0,7.44,58.0,8.22,12.57,47.59359,-54.27349
2023-06-06 10:54:00+00:00,61.0,6.33,58.0,7.3,12.57,47.59359,-54.27349
2023-06-06 11:04:00+00:00,64.0,6.37,65.0,7.1,12.57,47.59359,-54.27349
2023-06-06 11:14:00+00:00,69.0,6.63,73.0,7.06,13.29,47.59359,-54.27349
2023-06-06 11:24:00+00:00,73.0,5.14,73.0,6.58,13.29,47.59359,-54.27349
2023-06-06 11:34:00+00:00,78.0,3.44,107.0,5.64,13.29,47.59359,-54.27349
2023-06-06 11:44:00+00:00,76.0,3.29,90.0,5.68,13.29,47.59359,-54.27349
2023-06-06 11:54:00+00:00,67.0,5.12,61.0,6.26,13.29,47.59359,-54.27349
2023-06-06 12:04:00+00:00,40.0,3.72,40.0,4.46,13.29,47.59359,-54.27349
2023-06-06 12:14:00+00:00,45.0,3.98,46.0,4.71,13.6,47.59359,-54.27349
2023-06-06 12:24:00+00:00,49.0,5.63,49.0,6.15,13.6,47.59359,-54.27349
2023-06-06 12:34:00+00:00,37.0,7.0,38.0,7.35,13.6,47.59359,-54.27349
2023-06-06 12:44:00+00:00,33.0,7.14,32.0,7.86,13.6,47.59359,-54.27349
2023-06-06 12:54:00+00:00,28.0,8.39,29.0,9.12,13.6,47.59359,-54.27349
2023-06-06 13:04:00+00:00,30.0,9.08,31.0,9.65,13.6,47.59359,-54.27349
2023-06-06 13:14:00+00:00,34.0,8.91,35.0,9.52,13.29,47.59359,-54.27349
2023-06-06 13:24:00+00:00,37.0,8.54,37.0,9.44,13.29,47.59359,-54.27349
2023-06-06 13:34:00+00:00,41.0,8.3,42.0,9.14,13.29,47.59359,-54.27349
2023-06-06 13:44:00+00:00,34.0,8.22,35.0,8.83,13.29,47.59359,-54.27349
2023-06-06 13:54:00+00:00,25.0,8.59,30.0,9.83,13.29,47.59359,-54.27349
2023-06-06 14:04:00+00:00,31.0,6.49,30.0,7.69,13.29,47.59359,-54.27349
2023-06-06 14:14:00+00:00,67.0,6.31,76.0,8.31,13.37,47.59359,-54.27349
2023-06-06 14:24:00+00:00,83.0,6.24,94.0,9.7,13.37,47.59359,-54.27349
2023-06-06 14:34:00+00:00,80.0,6.61,69.0,11.76,13.37,47.59359,-54.27349
2023-06-06 14:44:00+00:00,75.0,5.65,94.0,9.22,13.37,47.59359,-54.27349
2023-06-06 14:54:00+00:00,75.0,7.17,59.0,9.83,13.37,47.59359,-54.27349
2023-06-06 15:04:00+00:00,74.0,7.05,113.0,9.75,13.37,47.59359,-54.27349
2023-06-06 15:14:00+00:00,71.0,7.14,71.0,10.2,13.6,47.59359,-54.27349
2023-06-06 15:24:00+00:00,69.0,7.49,65.0,10.07,13.6,47.59359,-54.27349
2023-06-06 15:34:00+00:00,68.0,5.4,70.0,7.48,13.6,47.59359,-54.27349
2023-06-06 15:44:00+00:00,64.0,5.36,66.0,6.77,13.6,47.59359,-54.27349
2023-06-06 15:54:00+00:00,71.0,5.73,77.0,7.08,13.6,47.59359,-54.27349
2023-06-06 16:04:00+00:00,72.0,5.76,75.0,8.12,13.6,47.59359,-54.27349
2023-06-06 16:14:00+00:00,65.0,6.31,71.0,7.17,13.68,47.59359,-54.27349
2023-06-06 16:24:00+00:00,66.0,6.93,70.0,8.45,13.68,47.59359,-54.27349
2023-06-06 16:34:00+00:00,63.0,6.2,67.0,7.53,13.68,47.59359,-54.27349
2023-06-06 16:44:00+00:00,59.0,5.85,58.0,6.8,13.68,47.59359,-54.27349
2023-06-06 16:54:00+00:00,52.0,5.51,44.0,6.28,13.68,47.59359,-54.27349
2023-06-06 17:04:00+00:00,56.0,6.07,53.0,6.71,13.68,47.59359,-54.27349
2023-06-06 17:14:00+00:00,62.0,5.89,72.0,7.12,13.68,47.59359,-54.27349
2023-06-06 17:24:00+00:00,65.0,6.86,69.0,7.87,13.68,47.59359,-54.27349
2023-06-06 17:34:00+00:00,68.0,5.0,60.0,7.23,13.68,47.59359,-54.27349
2023-06-06 17:44:00+00:00,78.0,4.04,61.0,6.41,13.68,47.59359,-54.27349
2023-06-06 17:54:00+00:00,90.0,4.66,107.0,8.76,13.68,47.59359,-54.27349
2023-06-06 18:04:00+00:00,76.0,4.19,84.0,6.91,13.68,47.59359,-54.27349
2023-06-06 18:14:00+00:00,85.0,3.09,110.0,5.03,13.6,47.59359,-54.27349
2023-06-06 18:24:00+00:00,89.0,3.86,66.0,7.49,13.6,47.59359,-54.27349
2023-06-06 18:34:00+00:00,77.0,4.05,75.0,6.15,13.6,47.59359,-54.27349
2023-06-06 18:44:00+00:00,70.0,4.73,70.0,6.46,13.6,47.59359,-54.27349
2023-06-06 18:54:00+00:00,70.0,5.29,76.0,6.31,13.6,47.59359,-54.27349
2023-06-06 19:04:00+00:00,70.0,5.55,64.0,6.76,13.6,47.59359,-54.27349
2023-06-06 19:14:01+00:00,72.0,5.09,71.0,7.35,13.44,47.59359,-54.27349
2023-06-06 19:24:01+00:00,71.0,4.79,60.0,6.29,13.44,47.59359,-54.27349
2023-06-06 19:34:01+00:00,69.0,4.47,59.0,6.36,13.44,47.59359,-54.27349
2023-06-06 19:44:01+00:00,81.0,4.44,70.0,6.12,13.44,47.59359,-54.27349
2023-06-06 19:54:01+00:00,67.0,4.94,68.0,7.08,13.44,47.59359,-54.27349
2023-06-06 20:04:01+00:00,53.0,1.94,67.0,2.71,13.44,47.59359,-54.27349
2023-06-06 20:14:00+00:00,72.0,3.02,76.0,3.66,13.21,47.59359,-54.27349
2023-06-06 20:24:00+00:00,68.0,4.2,57.0,6.22,13.21,47.59359,-54.27349
2023-06-06 20:34:00+00:00,71.0,4.6,57.0,5.98,13.21,47.59359,-54.27349
2023-06-06 20:44:00+00:00,78.0,4.93,66.0,7.64,13.21,47.59359,-54.27349
2023-06-06 20:54:00+00:00,78.0,4.3,92.0,6.74,13.21,47.59359,-54.27349
2023-06-06 21:04:00+00:00,88.0,4.22,118.0,6.08,13.21,47.59359,-54.27349
2023-06-06 21:14:00+00:00,90.0,3.61,114.0,5.72,12.81,47.59359,-54.27349
2023-06-06 21:24:00+00:00,97.0,4.04,115.0,7.48,12.81,47.59359,-54.27349
2023-06-06 21:34:00+00:00,95.0,4.75,125.0,7.63,12.81,47.59359,-54.27349
2023-06-06 21:44:00+00:00,93.0,4.69,102.0,8.55,12.81,47.59359,-54.27349
2023-06-06 21:54:00+00:00,98.0,4.27,89.0,7.55,12.81,47.59359,-54.27349
2023-06-06 22:04:00+00:00,82.0,4.21,109.0,8.03,12.81,47.59359,-54.27349
2023-06-06 22:14:01+00:00,94.0,4.56,107.0,7.67,12.65,47.59359,-54.27349
2023-06-06 22:24:01+00:00,89.0,4.09,93.0,6.17,12.65,47.59359,-54.27349
2023-06-06 22:34:01+00:00,102.0,3.99,119.0,5.91,12.65,47.59359,-54.27349
2023-06-06 22:44:01+00:00,89.0,3.59,72.0,5.43,12.65,47.59359,-54.27349
2023-06-06 22:54:01+00:00,82.0,2.74,117.0,3.92,12.65,47.59359,-54.27349
2023-06-06 23:04:01+00:00,90.0,3.67,101.0,5.25,12.65,47.59359,-54.27349
2023-06-06 23:14:00+00:00,79.0,4.12,93.0,6.31,12.41,47.59359,-54.27349
2023-06-06 23:24:00+00:00,82.0,2.99,63.0,4.22,12.41,47.59359,-54.27349
2023-06-06 23:34:00+00:00,84.0,2.81,57.0,4.46,12.41,47.59359,-54.27349
2023-06-06 23:44:00+00:00,81.0,2.77,116.0,3.86,12.41,47.59359,-54.27349
2023-06-06 23:54:00+00:00,85.0,2.14,77.0,3.36,12.41,47.59359,-54.27349
